FENGYUN 1C DEB, 29792

Orbit data source: Space-Track

FENGYUN 1C DEB, 29792 is space debris in SSO originally from a launch on Mon, 10 May 1999 UTC launched from the Taiyaun Space Center, China (TSC). Fengyun 1C debris stems from the Chinese weather satellite Fengyun-1C, which was intentionally destroyed by a Chinese anti-satellite missile in 2007. This event dramatically increased the amount of space debris, with thousands of trackable fragments posing hazards to satellites and human spaceflight. The Fengyun 1C debris cloud has become a focal point in discussions about space sustainability and the need for international regulations to prevent the creation of new debris.

Loading next visibility...
Identifier
29792, 1999-025CJ
Orbit
SSO
Country
Flag of CNCN / PRC
Related business
Manufacturer
Unknown
Mission
Spacecraft
Bus & Motor
Unknown
Mass
Unknown
Launch date (UTC)
1999-05-10 (27 years ago)
Launch vehicle
Unknown
Launch site
Taiyaun Space Center, China (TSC)
Object type
Payload
Rocket body
Debris
Shape & HBR
Unknown shape, 0.1 m
Radar Cross Section
Medium (>0.1 m² and <1 m²)

Expand to show TLE details & history
Last TLE update: 12 hours ago

TLE from 12 hours ago
0 FENGYUN 1C DEB
1 29792U 99025CJ  26255.10132619  .00001165  00000-0  60413-3 0  9997
2 29792  98.7350 305.5710 0047463 334.5556  25.3282 14.16181485  8086
Epoch: 2026-09-12T02:25Z
TLE epoch observation values (Epoch: 2026-09-12T02:25:54.582Z)
Latitude
-0.00004°
Longitude
-82.02158°
Altitude
810.269 km
Speed
7.464 km/s
True Right ascension
20h 22m 17s
True Declination
0° 00' 00"
Sunlit
Object was in full shadow at epoch
Visualization orbit readout
Latitude
Unknown
Longitude
Unknown
Altitude
Unknown
Speed
Unknown
Apparent Right ascension
Unknown
Apparent Declination
Unknown
Sunlit
N/A
Visualization observer readout
Local Sidereal Time
06:41:17
Azimuth
Unknown
Elevation
Unknown
Doppler factor
Unknown
Orbital elements
Apogee altitude
869.698 km
Perigee altitude
801.223 km
Semi-major axis
7,213.598 km
Eccentricity
0.00475
Inclination
98.735°
RAAN
305.571°
Arg. of periapsis
334.5556°
True anomaly
25.56213°
Mean anomaly
25.3282°
Eccentric anomaly
25.44504°
Mean motion
3.54254 °/min
Orbital period
101.62 mins
BSTAR
0.00060413
Loading maneuver chart data...
Computing Atmospheric mass density...
Loading historical data...
Loading historical data...
Loading historical data...
Loading historical data...
Loading historical data...
Loading historical data...
Loading historical data...

Documentation

Showing up to 5 results
|